Regional Weather Roundup
Issued by NWS Kansas City/Pleasant Hill, MO

Home | Current Version | Previous Version | Text Only | Print | Product List | Glossary On
Versions: 1 2 3 4 5 6 7 8 9 10 11 12 13 14 15 16 17 18 19 20 21 22 23 24 25 26 27 28
000
ASUS43 KEAX 152310
RWREAX

WEATHER ROUNDUP FOR EASTERN KANSAS AND NORTHWEST MISSOURI
NATIONAL WEATHER SERVICE KANSAS CITY/PLEASANT HILL MO
600 PM CDT SUN OCT 15 2017

KSZ040-057-103>105-MOZ028-029-037-043-160000-
...KANSAS CITY METROPOLITAN AREA...

CITY           SKY/WX    TMP DP  RH WIND       PRES   REMARKS
K.C. INTL      CLEAR     58  34  40 NW10      30.33S
K.C. DOWNTOWN  CLEAR     60  35  39 NW9       30.33R
LEES SUMMIT    CLEAR     59  37  44 W10       30.33S
OLATHE - IXD   CLEAR     58  35  42 NW12      30.35R
OLATHE - OJC   CLEAR     58  34  40 NW7       30.33S
LAWRENCE       CLEAR     59  36  42 NW10      30.34S

$$

MOZ001>008-011>017-020>025-030>033-038>040-044>046-053-054-160000-
...NORTHERN AND CENTRAL MISSOURI...

CITY           SKY/WX    TMP DP  RH WIND       PRES   REMARKS
ST. JOSEPH     CLEAR     59  34  39 NW9       30.33S
MOSBY          CLEAR     59  32  36 NW9       30.33R
WARRENSBURG    CLEAR     59  37  44 W7        30.32R
WHITEMAN AFB   CLEAR     59  41  51 NW10      30.27S
CLINTON        CLEAR     59  41  51 N7        30.32S
SEDALIA        CLEAR     60  42  51 NW8       30.32R
WARSAW         NOT AVBL
CHILLICOTHE      N/A     59  39  47 VRB3      30.32R
KIRKSVILLE     PTCLDY    57  43  59 W7        30.29S

$$

MOZ041-047>049-056>058-063>065-088>090-097-160000-
...EASTERN AND SOUTHERN MISSOURI...

CITY           SKY/WX    TMP DP  RH WIND       PRES   REMARKS
ST. LOUIS INTL PTCLDY    58  45  62 N10       30.25R
SPIRIT OF STL  PTCLDY    60  45  57 NW10G21   30.25R
COLUMBIA       CLEAR     58  41  53 NW12      30.29R
JEFFERSON CITY CLEAR     60  40  47 NW6       30.28S
ROLLA          CLEAR     57  43  59 NW12      30.28R
OSAGE BEACH    CLEAR     58  42  55 N5        30.30S
SPRINGFIELD    CLEAR     60  41  49 NW12      30.29S
BRANSON        PTCLDY    61  39  44 NW13      30.29R
JOPLIN         CLEAR     60  39  45 NW12      30.33R
WEST PLAINS    CLEAR     61  41  47 N9        30.25R

$$

IAZ060-094-KSZ022-034>040-054-083-096-NEZ052-066-093-160000-
...KANSAS...SOUTHEAST NEBRASKA AND IOWA...

CITY           SKY/WX    TMP DP  RH WIND       PRES   REMARKS
TOPEKA         CLEAR     60  36  40 NW8       30.35S
MANHATTAN      CLEAR     62  35  36 W3        30.36S
EMPORIA        CLEAR     59  32  36 NW10      30.36S
CHANUTE        CLEAR     61  37  41 N10       30.35S
WICHITA        CLEAR     63  34  33 N12       30.37F
OMAHA          CLEAR     60  33  36 W9        30.30S
LINCOLN        CLEAR     62  31  31 W6        30.33F
FALLS CITY     CLEAR     57  35  43 NW7       30.33S
LAMONI         CLEAR     56  34  43 NW9       30.30R
DES MOINES     CLEAR     57  32  38 NW9       30.27R

$$





USA.gov is the U.S. government's official web portal to all federal, state and local government web resources and services.